This is the latest recevied weather packets stored in our database for station/object KD0MAC. If no packets are shown the sender has not sent any weather packets the latest 10 day(s).
| Time | Temp. | Humidity | Pressure | Rain* | Wind** | Luminosity | Snow |
|---|---|---|---|---|---|---|---|
| 1788554924 | 38.89° C | 31% | 1011.2 hPa | 0 mm | - | 469 W/m² | - |
| 1788554677 | 38.89° C | 33% | 1011.5 hPa | 0 mm | - | 480 W/m² | - |
| 1788554624 | 38.89° C | 33% | 1011.5 hPa | 0 mm | - | 480 W/m² | - |
| 1788554375 | 38.89° C | 35% | 1011.5 hPa | 0 mm | - | 494 W/m² | - |
| 1788554325 | 38.89° C | 35% | 1011.5 hPa | 0 mm | - | 494 W/m² | - |
| 1788554075 | 38.33° C | 32% | 1011.5 hPa | 0 mm | - | 387 W/m² | - |
| 1788554024 | 38.33° C | 32% | 1011.5 hPa | 0 mm | - | 387 W/m² | - |
| 1788553725 | 38.33° C | 32% | 1011.5 hPa | 0 mm | - | 352 W/m² | - |
| 1788553424 | 38.89° C | 32% | 1011.5 hPa | 0 mm | - | 495 W/m² | - |
| 1788553175 | 38.33° C | 32% | 1011.5 hPa | 0 mm | - | 523 W/m² | - |
| 1788553125 | 38.33° C | 32% | 1011.5 hPa | 0 mm | - | 523 W/m² | - |
| 1788552875 | 38.89° C | 33% | 1011.5 hPa | 0 mm | - | 528 W/m² | - |
| 1788552825 | 38.89° C | 33% | 1011.5 hPa | 0 mm | - | 528 W/m² | - |
| 1788552526 | 38.33° C | 33% | 1011.5 hPa | 0 mm | - | 499 W/m² | - |
| 1788552276 | 37.78° C | 34% | 1011.5 hPa | 0 mm | - | 526 W/m² | - |
| 1788552224 | 37.78° C | 34% | 1011.5 hPa | 0 mm | - | 526 W/m² | - |
| 1788551925 | 39.44° C | 32% | 1011.5 hPa | 0 mm | - | 457 W/m² | - |
| 1788551675 | 38.89° C | 32% | 1011.5 hPa | 0 mm | - | 544 W/m² | - |
| 1788551624 | 38.89° C | 32% | 1011.5 hPa | 0 mm | - | 544 W/m² | - |
| 1788551325 | 38.89° C | 33% | 1011.5 hPa | 0 mm | - | 541 W/m² | - |
| 1788551025 | 37.78° C | 35% | 1011.5 hPa | 0 mm | - | 385 W/m² | - |
| 1788550724 | 38.89° C | 35% | 1011.5 hPa | 0 mm | - | 368 W/m² | - |
| 1788550475 | 38.33° C | 34% | 1011.9 hPa | 0 mm | - | 525 W/m² | - |
| 1788550426 | 38.33° C | 34% | 1011.9 hPa | 0 mm | - | 525 W/m² | - |
| 1788550176 | 38.33° C | 34% | 1011.9 hPa | 0 mm | - | 559 W/m² | - |
* Rain latest hour (hover to see other rain measurements)
** Current wind speed in m/s (hover to see current wind gust speed)